CAPE
1391 1120 988 682 858 791 1123 922 647 653 902 4 12 454 495 960 872 135 372 136 432 296 572 690 735 1045 1168 720 407 380 314 0 318 0 0 142 142 203 590 415 475 668 733 716 897 996 799 1246 1500 2206 2305 2494 2404 2289 2610 2533 2536 2934 2945 2875 3055 2976 3154 3241 3317 3314 3238 3198 3120 3188 3274 3275 3188 3193 3108 3142 3200 3176 3138 3155 3076 2909 2875 2808 2794 2849 2720 2782 2665 2420 2773 2729 2622 2654 2691 2617 2495
1140 790 862 702 1032 1034 1215 1238 931 112 204 30 16 412 184 264 402 301 218 442 372 262 354 602 934 532 607 470 331 318 66 407 771 315 79 180 242 553 766 640 682 724 799 838 940 850 841 954 1371 2245 2360 2477 2351 2261 2586 2618 2602 2895 2952 2972 3168 3298 3301 3208 3182 3100 3090 2999 3016 3088 3149 3185 3152 3080 2998 3066 3170 3241 3142 3042 2934 2956 2905 2889 2862 2884 2786 2740 2864 2918 2742 2674 2610 2561 2659 2692 2566
916 854 903 924 823 991 1078 1025 223 18 0 14 32 129 137 169 236 286 318 344 558 417 726 695 666 599 578 343 231 353 16 368 712 178 256 299 377 592 774 738 792 829 952 895 964 1022 1217 1134 1592 2291 2302 2424 2336 2353 2404 2662 2775 2777 2796 3036 3216 3211 3112 3192 3146 3078 2912 2992 3063 3066 3126 3120 3036 3018 3166 3171 3198 3227 3095 2960 2906 2844 2866 2901 2938 2968 2933 2926 2835 2794 2604 2700 2707 2392 2333 2402 2509
947 787 998 1112 882 1060 1037 848 4 80 49 2 69 224 156 76 135 386 608 598 554 629 575 592 602 531 443 334 331 230 239 221 249 202 205 330 338 697 787 914 1176 956 920 985 1132 1295 1387 1339 2166 2442 2312 2322 2358 2368 2370 2509 2736 2741 2889 2956 3040 2995 3216 3416 3494 3358 3089 2982 3039 3056 3098 3033 3138 3282 3143 3182 3216 3109 2983 2898 2931 2849 2889 2838 3046 2944 2753 2688 2706 2583 2611 2674 2595 2466 2366 2373 2456
1099 991 1141 1211 1125 1092 919 170 96 572 118 97 46 71 262 158 224 644 622 590 538 555 420 466 344 244 428 315 218 167 376 461 334 484 264 622 659 790 848 1085 1102 1074 948 1067 1176 1475 1728 1860 2416 2223 2322 2405 2318 2273 2249 2435 2793 2685 2804 2884 2972 3113 3285 3449 3407 3430 3276 2942 3047 3218 3306 3194 3289 3196 3160 3224 3239 2932 2892 2870 2884 2879 2844 2786 2848 2896 2857 2785 2532 2368 2580 2588 2634 2660 2512 2446 2418
1026 1050 1035 1274 1294 900 948 204 236 118 29 62 72 61 200 305 390 651 520 631 473 460 450 374 470 412 377 375 427 493 366 267 496 488 602 594 810 839 1060 1257 1122 1190 1189 1124 1345 1608 1734 2412 2232 2228 2306 2415 2269 2018 2210 2529 2860 2860 2602 2816 2994 3056 3256 3323 3325 3378 3301 3181 3079 3220 3364 3261 3405 3306 3291 3190 3099 2903 2864 2900 2910 2888 2889 2897 2812 2789 2759 2724 2760 2620 2632 2664 2473 2806 2697 2748 2606
854 1046 1074 1070 984 1184 848 373 242 170 127 96 78 171 422 513 635 607 605 612 632 565 540 480 457 488 654 582 550 450 595 596 602 624 693 767 884 1067 1134 1100 1159 1228 1259 1319 1416 1575 1854 2222 2172 2171 2405 2320 2252 2131 2277 2724 2821 2856 2676 2710 2978 3078 3211 3288 3342 3320 3177 3120 3238 3350 3257 3294 3302 3196 3106 3065 3001 2950 2998 2975 2993 2944 2894 2877 2797 2818 2871 2749 2749 2621 2560 2499 2546 2498 2494 2756 2810
1002 1266 890 1050 1011 787 558 403 332 298 70 91 36 310 544 649 600 585 587 591 452 389 432 446 742 600 781 797 623 680 679 815 826 813 795 838 936 1148 1157 1122 1171 1198 1284 1395 1498 1634 2138 2182 2196 2322 2322 2342 2154 2229 2158 2548 2648 2718 2634 2810 2955 2966 3213 3196 3327 3197 3128 3120 3329 3294 3290 3330 3306 3212 3054 3028 2960 3057 3111 3075 3008 3027 2938 2783 2801 2724 2621 2690 2615 2695 2613 2662 2679 2656 2623 2724 2567
1005 1200 1377 1381 788 592 509 222 236 226 324 128 10 279 480 549 537 570 557 426 363 464 636 606 336 208 816 946 925 1084 876 846 878 970 853 853 960 1036 1105 1090 1137 1206 1303 1456 1574 1761 2038 2073 2303 2203 2364 2306 2130 2255 2190 2349 2573 2733 2814 2988 2886 2873 3087 3152 3246 3066 3017 3101 3335 3341 3288 3267 3242 2960 2976 2941 2962 3066 3136 3074 3064 2992 2996 2888 2670 2575 2507 2508 2606 2753 2762 2740 2821 2742 2639 2571 2618
1086 1288 1448 1356 360 97 1 0 3 3 212 48 214 392 361 535 574 566 414 422 489 566 564 487 766 596 902 826 1045 1185 980 954 891 901 934 974 980 1003 1076 1136 1145 1212 1397 1510 1610 1813 1947 2379 2391 2394 2383 2323 2268 2364 2314 2483 2683 2590 2922 3048 2866 2949 3096 3171 3120 2952 3084 3082 3244 3336 3240 3268 3022 2920 2913 2932 3053 3086 3133 3092 3002 2921 2925 2943 2764 2594 2484 2380 2380 2584 2638 2657 2715 2698 2616 2490 2602
1350 1189 1286 1077 421 204 1 0 0 10 134 118 372 406 543 553 512 532 571 616 598 736 809 759 817 811 812 860 1062 1174 1014 882 834 925 1034 1056 1005 1031 1076 1193 1176 1240 1458 1547 1649 1815 1937 2338 2082 2632 2674 2350 2338 2458 2481 2608 2764 2729 2978 3008 2881 2980 3058 3126 3132 3050 3061 3139 3177 3184 3220 3241 2919 2874 2853 2955 3012 3131 3076 3089 3021 3021 2937 2777 2687 2600 2520 2475 2648 2563 2653 2636 2530 2499 2550 2412 2387
1510 1621 1677 1050 268 4 0 0 0 26 76 189 320 503 548 572 643 657 628 630 824 749 764 692 807 794 825 908 930 1206 998 922 938 972 1098 1130 1120 1064 1130 1181 1230 1262 1438 1550 1716 1834 1888 1986 2040 2458 2759 2527 2502 2602 2671 2759 2840 2961 3092 2956 2932 3020 3090 3102 3120 3066 3098 3119 3138 3196 3164 3086 2887 2835 2857 2943 3100 2974 2960 2798 2629 2633 2730 2598 2667 2758 2691 2607 2629 2616 2558 2585 2382 2357 2457 2588 2483
1573 1374 1479 788 244 0 0 0 0 220 150 201 178 373 544 632 686 679 614 768 832 742 650 726 773 623 688 828 1223 1144 1099 1006 1076 1072 1122 1134 1169 1176 1144 1200 1278 1319 1422 1596 1748 1841 1914 1997 1992 1911 2097 2637 2744 2704 2800 2905 3036 3092 3129 2996 3022 3057 3110 3131 3136 3106 3075 3102 3044 3159 3176 2980 3006 2830 2888 2959 3080 2976 3076 2721 2744 2875 2995 2942 2877 3076 2833 2881 2649 2664 2506 2395 2399 2544 2635 2680 2549
1456 1577 793 390 0 0 0 0 36 34 8 242 108 355 582 704 721 674 761 851 775 604 750 825 683 833 992 978 1098 1063 1080 1074 1082 1126 1118 1157 1194 1204 1170 1232 1304 1377 1462 1573 1691 1860 1984 1954 2106 1941 2136 2258 2623 2842 2877 3125 3132 3174 3223 3128 3119 3134 3140 3163 3161 3153 3073 3086 2970 3078 3188 3171 2954 2895 2883 2986 3095 3119 2783 2987 2965 3218 3066 3066 2973 2924 2809 2822 2693 2742 2715 2545 2418 2552 2515 2592 2484
1492 1608 1061 600 121 0 0 0 0 0 210 252 444 568 662 789 753 686 782 755 642 935 774 779 939 791 869 979 954 996 1160 1119 1074 1040 1093 1199 1248 1177 1172 1264 1330 1415 1566 1618 1644 1841 1996 1947 2029 2191 2228 2208 2429 2546 2637 3044 3283 3336 3210 3266 3162 3164 3126 3177 3161 3128 3122 3046 3084 3053 3192 3258 2930 2856 3018 3052 3050 3400 3122 3084 3220 3337 2994 2770 2604 2633 2572 2612 2789 2905 2978 2813 2784 2740 2810 2566 2770
1986 1728 1448 701 277 0 0 0 0 0 222 304 552 624 764 838 748 698 704 670 911 804 769 949 890 1162 661 867 915 1114 1209 1164 1145 1126 1199 1294 1202 1158 1164 1269 1368 1487 1562 1638 1709 1818 1922 1978 2047 2200 2130 2303 2315 2436 2573 2796 3117 3259 3347 3154 3097 3253 3256 3168 3142 3128 3104 3018 2962 2977 2998 3296 3126 3006 3203 3155 3342 3402 3432 3311 3242 3182 2968 2656 2678 2792 2708 2886 3044 3105 2972 2892 2814 2860 2713 2621 2692
1905 1784 1300 958 464 154 0 0 0 0 0 330 581 707 790 834 704 681 728 884 841 711 848 872 1098 1034 842 960 1108 1215 1256 1234 1210 1218 1255 1294 1335 1272 1214 1252 1375 1504 1560 1682 1736 1843 1925 1997 2048 2127 2034 2169 2220 2431 2604 2678 2966 3280 2927 3198 2955 3204 3184 3220 3148 3041 3023 2990 2859 2828 2903 2941 3014 3136 2937 3210 3299 3599 3503 3305 3196 3198 2973 2679 2613 2508 2656 3017 3006 2910 2821 2735 2697 2781 2874 2864 2379
1731 1509 1364 1228 891 471 48 0 0 0 34 352 520 724 753 741 709 833 809 781 720 716 952 998 954 1011 1037 1098 1249 1257 1306 1440 1332 1224 1268 1350 1290 1233 1216 1254 1284 1296 1514 1705 1872 1867 1883 1996 2076 2117 2037 2154 2302 2436 2521 2590 2781 2666 2899 2892 3086 2937 3100 3076 2997 2810 2952 2823 2873 2824 2795 3266 2962 2871 2722 3447 3436 3726 3543 3412 3317 3273 3225 3104 2868 2865 2802 2655 2690 3015 2716 2889 2781 2632 2785 2893 3363
1934 1472 1088 962 708 544 0 0 0 0 0 302 531 722 708 682 855 817 700 736 754 913 954 1115 1134 1137 1150 1238 1259 1286 1406 1456 1374 1248 1268 1264 1234 1182 1217 1174 1204 1280 1451 1630 1771 1853 1794 1884 2023 2037 2030 2140 2312 2409 2460 2537 2633 2516 2784 2853 2935 2880 3000 3266 2710 3328 2738 2624 2730 2758 3044 2924 2888 2792 2860 3248 3451 3606 3702 3582 3376 3397 3198 2764 3280 3192 2765 2736 2692 2816 2676 2814 2874 2678 2747 2816 3201
1399 1131 952 668 494 176 0 0 0 0 0 162 514 674 613 738 818 868 626 718 792 891 1036 1144 1222 1194 1258 1295 1298 1324 1435 1434 1400 1320 1290 1238 1185 1122 1132 1142 1131 1199 1332 1474 1652 1698 1719 1764 1858 1931 1995 2148 2315 2392 2458 2528 2629 2566 2681 2786 2768 2741 2822 2916 2591 2972 2730 2631 2775 2806 2894 2864 2705 2596 3462 3215 3190 3376 3318 3350 2909 2892 2534 2628 2622 3600 3945 4020 3422 3594 3466 2910 3518 3808 3216 3483 3468
858 862 722 549 306 3 0 0 0 2 0 54 476 616 655 828 760 703 613 680 822 858 1033 1122 1236 1271 1258 1303 1333 1342 1450 1436 1418 1316 1294 1207 1175 1087 1044 1068 1080 1154 1292 1426 1567 1620 1659 1679 1721 1812 1963 2110 2238 2338 2428 2502 2628 2496 2646 2738 2744 2662 2714 2776 2599 2825 2730 2598 2665 2795 2826 2798 2807 2549 2473 2954 2966 2903 2946 3042 3279 3292 3330 3310 3791 3270 2849 2760 3380 2960 2844 3498 3354 3497 3638 3544 3331
238 611 634 474 132 0 0 0 0 2 0 70 458 585 712 828 766 732 616 579 783 838 970 1121 1266 1306 1304 1304 1308 1280 1402 1452 1392 1334 1296 1214 1157 1076 1036 987 1033 1141 1268 1350 1456 1560 1613 1652 1682 1738 1933 2026 2108 2196 2297 2410 2600 2474 2595 2699 2711 2557 2628 2770 2584 2706 2716 2586 2577 2708 2734 2650 2698 2614 2456 2438 2568 2613 2738 2828 3050 3127 3266 3378 3303 3014 2816 2778 2673 2786 2747 2960 3138 3065 3155 3119 2992
260 182 38 111 7 2 0 0 0 4 2 15 451 582 723 755 756 754 657 580 726 855 953 1194 1296 1327 1342 1292 1266 1265 1350 1426 1411 1363 1308 1237 1154 1106 1102 1044 1096 1156 1276 1284 1389 1485 1560 1632 1682 1716 1866 1918 1980 2008 2088 2253 2458 2472 2520 2620 2641 2553 2579 2722 2686 2625 2606 2571 2500 2620 2612 2619 2521 2528 2452 2333 2174 2448 2548 2590 2710 2742 2918 2902 2777 2826 2734 2605 2579 2476 2344 2366 2244 2125 2123 2118 2115
92 98 12 0 0 0 0 0 0 0 2 235 422 620 678 662 718 807 728 550 690 870 1046 1293 1313 1358 1357 1360 1282 1296 1314 1388 1416 1398 1352 1260 1196 1172 1164 1127 1132 1144 1239 1245 1336 1436 1652 1607 1677 1710 1777 1784 1801 1813 1880 1997 2368 2374 2415 2773 2692 2552 2549 2656 2681 2599 2536 2542 2369 2435 2790 2499 2300 2310 2411 2340 2188 2397 2554 2484 2483 2476 2497 2534 2582 2465 2317 2273 2162 2102 1978 2074 2230 2259 2318 2248 1999
22 52 22 2 0 0 0 0 0 0 0 12 266 588 650 597 680 798 752 640 813 930 1229 1336 1366 1394 1389 1388 1342 1330 1292 1310 1380 1417 1374 1273 1226 1263 1199 1186 1182 1166 1234 1248 1332 1455 1540 1614 1656 1704 1703 1716 1652 1674 1735 1813 2212 2264 2332 2500 2597 2670 2561 2564 2668 2591 2486 2478 2380 2280 2922 2394 2200 2192 2396 2507 2408 2418 2539 2581 2564 2536 2474 2442 2406 2045 2112 2211 2002 2070 1986 2085 2239 2053 2304 2242 2176
0 0 0 0 0 0 0 0 0 0 0 2 0 454 546 543 600 775 691 899 920 1100 1334 1376 1363 1396 1384 1368 1340 1337 1304 1261 1317 1375 1377 1270 1258 1306 1239 1233 1231 1227 1262 1296 1382 1490 1537 1568 1641 1671 1643 1690 1600 1616 1652 1705 2062 2176 2231 2344 2482 2687 2561 2481 2556 2539 2386 2405 2334 2284 2344 2396 2196 2233 2350 2502 2584 2571 2502 2553 2580 2524 2482 2408 2034 1880 2027 2018 1896 2122 2018 2344 2004 2167 2254 2250 2573
0 0 0 0 0 0 0 0 0 0 0 0 0 0 139 159 606 634 820 985 1016 1169 1318 1366 1382 1363 1314 1291 1314 1327 1294 1267 1281 1326 1310 1258 1307 1304 1275 1235 1258 1261 1307 1346 1412 1501 1608 1556 1612 1664 1609 1868 1597 1591 1597 1638 1903 2060 2122 2193 2299 2361 2434 2360 2399 2436 2254 2268 2330 2324 2250 2550 2270 2223 2315 2404 2450 2473 2495 2518 2519 2441 2301 1960 1850 2070 2208 2229 2044 1838 1842 1881 2072 2244 2207 2016 1612
0 0 0 0 0 0 0 0 0 0 0 0 2 0 0 4 321 458 919 1004 1050 1144 1250 1361 1429 1401 1339 1305 1312 1241 1286 1240 1214 1196 1212 1206 1280 1286 1288 1242 1281 1292 1346 1353 1416 1494 1541 1520 1579 1628 1595 1778 1650 1558 1703 1598 1720 1924 1994 2031 2064 2100 2172 2190 2219 2268 2224 2268 2317 2316 2350 2313 2995 2250 2260 2388 2432 2244 2292 2382 2390 2272 2050 1789 2028 2316 2326 2674 2022 2215 2465 2453 2494 2313 1989 1667 1376
0 0 0 0 0 0 0 0 0 0 0 0 0 3 0 3 94 463 942 1022 1070 1096 1213 1341 1429 1449 1428 1421 1446 1403 1379 1314 1234 1216 1199 1223 1226 1245 1272 1236 1321 1359 1341 1358 1408 1474 1538 1499 1514 1579 1600 1785 1720 1574 1604 1566 1577 1716 1860 1895 1859 1908 2019 2092 2074 2104 2125 2250 2321 2316 2339 2374 2571 2520 2304 2381 2701 2142 2164 2184 2179 2146 1971 1845 2224 2351 2567 2476 2539 2778 2724 2596 2525 2428 1400 602 541
0 0 0 0 0 0 0 0 0 0 0 0 0 0 0 6 98 836 984 1050 1075 1091 1165 1276 1362 1407 1438 1446 1460 1474 1454 1366 1308 1312 1267 1273 1273 1322 1292 1275 1410 1384 1374 1386 1370 1464 1534 1516 1564 1542 1599 1764 1768 1604 1573 1558 1467 1473 1724 1832 1843 1838 1990 2054 2043 2053 2174 2174 2252 2300 2323 2366 2406 2436 2431 2367 2246 2044 2014 2039 2062 2000 2134 2180 2086 2200 2204 2413 2595 2359 2092 1935 2070 986 536 158 13
0 0 0 0 0 0 0 0 0 0 0 0 0 0 0 0 553 859 956 1078 1067 1080 1121 1195 1238 1309 1372 1393 1411 1440 1456 1433 1382 1369 1342 1318 1336 1367 1373 1379 1495 1468 1456 1436 1402 1450 1669 1545 1623 1583 1786 1746 1947 1655 1680 1567 1471 1314 1613 1808 1821 1786 1936 2021 2041 2074 2110 2183 2170 2225 2269 2297 2345 2312 2311 2306 2225 2080 1966 1950 2002 2167 2264 2240 2219 2172 2192 2190 2211 2280 2132 1870 1048 592 448 264 229
0 0 0 0 0 0 0 0 0 0 0 0 0 0 0 113 742 856 934 1062 1078 1063 1097 1120 1125 1159 1246 1306 1343 1370 1408 1412 1406 1395 1381 1358 1358 1395 1420 1465 1560 1545 1514 1503 1465 1482 1614 1581 1738 1647 1770 1732 1827 1721 1656 1636 1577 1390 1486 2064 1855 1818 1845 1953 2018 2078 2081 2094 2134 2135 2203 2268 2206 2144 2111 2094 2131 2173 2112 1986 1991 2256 2337 2270 2285 2288 2315 2188 2146 2276 2148 1860 838 356 352 85 77
0 0 0 0 0 0 0 0 0 0 0 0 0 0 3 512 748 872 898 1015 1049 1075 1082 1110 1072 1100 1171 1228 1289 1330 1345 1356 1374 1380 1378 1336 1345 1388 1412 1473 1595 1606 1558 1559 1518 1505 1609 1638 2052 1714 1762 1782 1782 1783 1698 1686 1684 1562 1414 1812 1895 1926 1862 1887 1950 1978 2022 2039 2080 2109 2159 2250 2320 2194 2114 2179 2260 2284 2246 2080 2186 2342 2436 2287 2352 2206 2238 2156 2000 2120 1951 1496 477 2 84 71 41
0 0 0 0 0 0 0 0 0 0 0 0 0 0 3 567 730 861 850 920 950 1032 1073 1088 1066 1072 1125 1174 1193 1255 1302 1338 1362 1359 1370 1322 1284 1317 1366 1536 1573 1641 1588 1565 1534 1505 1568 1635 1780 1747 1728 1781 1781 1795 1749 1661 1682 1698 1484 1572 2006 1931 2020 1967 1918 1875 1853 1902 1963 2036 2091 2148 2224 2427 2434 2406 2470 2504 2348 2329 2380 2471 2393 2423 2354 2127 2102 2084 2188 2102 1768 737 445 5 66 79 80
0 0 0 0 0 0 0 0 0 0 0 0 0 0 7 577 722 824 837 836 852 935 1002 1040 1045 1021 1092 1099 1102 1133 1164 1207 1281 1312 1349 1323 1243 1232 1265 1310 1486 1629 1596 1556 1514 1484 1488 1531 1632 1702 1642 1683 1702 1709 1697 1632 1642 1704 1735 1473 1701 1874 1981 1988 1926 1819 1698 1668 1707 1790 1866 1897 2253 2476 2610 2590 2563 2730 2628 2538 2557 2501 2498 2465 2241 2310 2234 2092 1960 1936 1612 676 95 0 27 43 83
0 0 0 0 0 0 0 0 0 0 0 0 0 0 6 544 746 786 807 800 800 852 912 953 966 966 1022 1020 1005 1041 1052 1058 1091 1150 1170 1178 1158 1158 1137 1144 1307 1474 1501 1500 1467 1456 1446 1464 1474 1542 1590 1503 1523 1530 1560 1616 1648 1664 1679 1626 1544 1697 1801 1841 1843 1770 1645 1522 1519 1582 1628 1758 2045 2588 2656 2707 2675 2776 2670 2631 2680 2658 2542 2286 2253 2158 1765 1314 1234 1309 1408 779 0 360 894 515 344
0 0 0 0 0 0 0 0 0 0 0 0 0 0 53 572 742 772 802 796 790 806 862 892 914 922 967 948 931 972 1023 1038 1010 1020 1069 1067 1038 1055 1101 1107 1196 1279 1302 1328 1360 1394 1417 1454 1461 1485 1572 1506 1471 1495 1522 1562 1613 1620 1604 1594 1548 1588 1610 1581 1590 1620 1612 1511 1476 1530 1635 1940 2151 2636 2770 2771 2740 3150 2711 2800 2836 2689 2255 2110 2094 1851 1123 962 786 1072 1219 537 0 59 133 40 0
0 0 0 0 0 0 0 0 0 0 0 0 0 0 10 532 723 768 808 796 791 800 840 854 876 881 891 872 873 906 970 979 984 1023 1085 1104 1094 1074 1064 1077 1117 1192 1237 1243 1283 1351 1398 1426 1463 1488 1568 1585 1531 1522 1515 1548 1579 1570 1532 1524 1517 1516 1532 1482 1458 1487 1454 1537 1555 1439 1776 2168 2382 2667 2896 2899 2848 2905 2886 2880 2896 2772 2292 2038 2024 1381 742 179 145 700 676 38 479 12 19 56 3
0 0 0 0 0 0 0 0 0 0 0 0 0 0 6 410 671 749 798 800 786 787 828 850 860 863 849 802 812 830 851 860 875 943 982 1028 1060 1074 1038 1006 1042 1118 1182 1220 1289 1354 1395 1429 1456 1474 1549 1592 1582 1559 1544 1568 1568 1518 1464 1456 1451 1471 1512 1502 1450 1448 1502 1550 1558 1621 2002 2370 2570 2778 2918 3054 3030 3041 3065 2990 2916 2571 2148 2000 1894 334 36 30 0 0 0 0 192 108 505 307 190
0 0 0 0 0 0 0 0 0 0 0 0 0 0 0 208 540 729 784 791 778 762 777 794 811 813 786 749 733 774 793 804 798 839 883 893 930 960 946 916 944 1024 1102 1149 1253 1366 1408 1437 1450 1464 1521 1598 1598 1581 1674 1550 1582 1570 1521 1505 1479 1438 1552 1580 1584 1580 1517 1590 1651 1858 2169 2573 2737 2863 2984 3111 3120 3133 3150 3082 2856 2398 2108 1961 1484 740 0 0 0 0 0 84 6 117 11 119 1230
0 0 0 0 0 0 0 0 0 0 0 0 0 0 0 3 329 559 696 758 711 675 697 733 754 754 727 689 676 711 745 728 724 744 762 767 805 836 814 808 862 970 1035 1096 1195 1318 1382 1430 1428 1452 1495 1570 1599 1588 1612 1561 1568 1599 1608 1621 1566 1485 1938 1649 1664 1658 1684 1641 1702 2052 2312 2728 2860 2911 3024 3113 3155 3117 3090 3058 2865 2367 2120 1906 1429 826 220 0 0 0 0 58 1 5 25 76 46
0 0 0 0 0 0 0 0 0 0 0 0 0 0 0 0 2 85 566 617 594 580 578 611 668 677 676 630 620 648 703 693 682 668 679 680 710 719 664 754 808 922 998 1060 1146 1268 1349 1394 1419 1423 1453 1508 1552 1572 1586 1565 1540 1626 1654 1653 1663 1616 1599 1768 1697 1655 1735 1938 1976 2148 2432 2748 2916 2921 2980 3077 3151 2997 2948 2964 2862 2335 1952 1734 1360 866 599 372 49 0 0 4 0 0 18 14 32
0 0 0 0 0 0 0 0 0 0 0 0 0 0 0 0 0 0 16 456 506 422 450 508 542 577 558 548 531 560 635 657 619 570 536 555 600 610 616 734 775 856 966 1014 1094 1198 1274 1350 1392 1406 1414 1471 1508 1532 1562 1572 1507 1598 1623 1634 1648 1630 1626 1669 1726 1687 1648 2034 2244 2331 2506 2732 2875 2920 2958 3044 3100 2978 2850 2867 2780 2306 1656 1509 1274 963 686 538 87 0 0 0 0 186 0 0 0
0 0 0 0 0 0 0 0 0 0 0 0 0 0 0 0 0 0 0 11 25 158 321 372 416 477 468 445 459 509 552 585 563 519 472 478 522 545 575 688 780 818 905 972 1048 1134 1215 1265 1323 1360 1363 1412 1470 1506 1535 1560 1485 1543 1625 1630 1652 1656 1622 1688 1690 1722 1662 1902 2436 2540 2619 2723 2820 2865 2902 3018 3072 2908 2707 2653 2551 2110 1734 1320 900 718 580 513 0 0 42 0 15 139 0 0 0
0 0 0 0 0 0 0 0 0 0 0 0 0 0 0 0 0 0 0 0 0 16 212 249 296 345 389 369 390 458 488 486 474 471 448 440 452 499 520 584 743 809 857 929 994 1092 1159 1206 1243 1284 1315 1371 1462 1481 1500 1570 1530 1534 1607 1619 1622 1648 1668 1692 1719 1683 1778 1888 2244 2582 2735 2788 2787 2818 2825 2878 2984 2829 2565 2463 2359 2101 1817 1495 1113 501 489 281 0 0 70 16 104 10 0 0 0
0 0 0 0 0 0 0 0 0 0 0 0 0 0 0 0 0 0 0 0 0 0 0 0 5 190 260 284 295 372 202 164 116 111 91 66 62 106 180 268 558 763 844 916 971 1043 1125 1166 1191 1200 1242 1322 1466 1466 1467 1546 1570 1563 1576 1600 1566 1587 1622 1673 1642 1624 1785 1916 2050 2411 2702 2813 2779 2758 2759 2748 2805 2761 2570 2454 2366 2192 1892 1548 1205 538 556 0 0 2 24 27 11 3 3 0 0
0 0 0 0 0 0 0 0 0 0 0 0 0 0 0 0 0 0 0 0 0 0 0 0 0 0 6 32 37 100 134 105 74 57 52 48 36 54 100 168 304 446 776 878 953 1006 1086 1137 1145 1132 1169 1259 1437 1462 1469 1532 1568 1565 1568 1599 1583 1554 1557 1602 1680 1750 1760 1890 1995 2217 2563 2758 2748 2709 2675 2664 2692 2694 2588 2485 2434 2247 1884 1502 1095 522 528 237 0 3 7 6 15 21 30 3 636
0 0 0 0 0 0 0 0 0 0 0 0 0 0 0 0 0 0 0 0 0 0 0 0 0 0 0 2 10 18 79 83 58 39 40 34 22 28 38 78 191 334 454 627 841 912 999 1056 1070 1088 1094 1168 1374 1445 1450 1510 1542 1561 1566 1556 1577 1529 1500 1528 1626 1738 1831 1862 1942 2079 2356 2623 2719 2688 2665 2627 2649 2665 2578 2535 2504 2291 1998 1454 915 640 712 440 2 0 0 1 2 20 8 122 27
0 0 0 0 0 0 0 0 0 0 0 0 0 0 0 0 0 0 0 0 0 0 0 0 0 0 0 0 0 0 4 45 42 36 34 29 30 22 34 34 78 243 403 468 547 758 854 918 963 1018 1044 1067 1297 1427 1444 1486 1516 1554 1562 1544 1526 1508 1471 1478 1532 1641 1778 1878 1940 2001 2185 2446 2602 2644 2644 2618 2627 2608 2596 2611 2523 2367 2104 1525 963 832 832 616 4 0 2 11 2 8 14 48 4
0 0 0 0 0 0 0 0 0 0 0 0 0 0 0 0 0 0 0 0 0 0 0 0 0 0 0 0 0 0 0 4 31 29 26 29 29 19 23 70 75 169 310 443 486 572 714 785 848 915 950 970 1197 1378 1440 1472 1509 1536 1548 1542 1499 1480 1480 1471 1474 1532 1661 1819 1915 1961 2048 2274 2455 2536 2559 2573 2550 2566 2628 2644 2537 2373 2119 1548 1052 1002 897 641 45 6 12 20 10 4 4 11 0
0 0 0 0 0 0 0 0 0 0 0 0 0 0 0 0 0 0 0 0 0 0 0 0 0 0 0 0 0 0 0 0 8 24 33 36 31 20 20 70 114 138 222 368 487 626 662 724 778 897 935 975 1164 1341 1428 1476 1502 1514 1534 1535 1507 1463 1470 1468 1462 1446 1521 1677 1854 1945 2014 2173 2345 2442 2460 2487 2514 2520 2588 2574 2494 2332 2054 1558 1203 1083 899 660 121 30 34 23 30 2 0 16 0
0 0 0 0 0 0 0 0 0 0 0 0 0 0 0 0 0 0 0 0 0 0 0 0 0 0 0 0 0 0 0 0 0 15 30 35 38 27 20 44 119 149 189 276 462 645 668 707 761 863 960 1019 1180 1387 1449 1496 1514 1521 1525 1540 1538 1501 1487 1490 1465 1452 1454 1526 1702 1875 1976 2076 2219 2315 2354 2395 2444 2476 2526 2504 2437 2262 1900 1480 1242 1080 894 676 145 18 35 33 38 64 1 10 12
0 0 0 0 0 0 0 0 0 0 0 0 0 0 0 0 0 0 0 0 0 0 0 0 0 0 0 0 0 0 0 0 0 0 16 30 33 29 22 16 78 160 186 231 363 621 718 710 752 838 934 1008 1160 1384 1488 1529 1541 1531 1557 1562 1567 1551 1544 1538 1528 1533 1542 1538 1605 1744 1829 1928 2048 2129 2203 2257 2346 2416 2481 2474 2370 2146 1818 1503 1248 1083 890 650 164 12 31 29 24 57 58 3 0
0 0 0 0 0 0 0 0 0 0 0 0 0 0 0 0 0 0 0 0 0 0 0 0 0 0 0 0 0 0 0 0 0 0 0 7 18 40 25 21 45 128 174 192 298 494 756 759 760 836 918 976 1096 1318 1493 1558 1571 1564 1582 1602 1598 1586 1569 1569 1561 1587 1611 1598 1609 1657 1736 1794 1870 1954 2007 2110 2174 2287 2380 2430 2316 2106 1886 1630 1363 1079 844 620 358 0 1 23 26 27 94 52 15
0 0 0 0 0 0 0 0 0 0 0 0 0 0 0 0 0 0 0 0 0 0 0 0 0 0 0 0 0 0 0 0 0 0 0 0 21 50 49 39 38 94 186 186 254 424 726 836 810 846 956 985 1044 1200 1421 1563 1604 1604 1596 1615 1627 1612 1588 1570 1570 1596 1655 1672 1652 1644 1676 1726 1766 1826 1884 1978 2044 2118 2202 2286 2258 2124 1928 1692 1443 1175 884 636 493 0 0 1 7 22 57 50 20
0 0 0 0 0 0 0 0 0 0 0 0 0 0 0 0 0 0 0 0 0 0 0 0 0 0 0 0 0 0 0 0 0 0 0 0 6 39 52 44 40 76 162 206 244 374 619 855 948 916 980 1052 1069 1138 1312 1484 1592 1622 1614 1622 1644 1637 1624 1606 1592 1600 1667 1731 1750 1715 1665 1644 1670 1709 1804 1904 1960 1998 2033 2070 2096 2080 1972 1748 1519 1260 1011 750 574 328 2 0 1 10 54 54 28
0 0 0 0 0 0 0 0 0 0 0 0 0 0 0 0 0 0 0 0 0 0 0 0 0 0 0 0 0 0 0 0 0 0 0 0 0 14 47 44 38 63 182 280 297 386 535 790 987 1038 1030 1124 1210 1230 1262 1390 1493 1591 1609 1626 1662 1667 1671 1655 1651 1642 1668 1728 1796 1815 1798 1744 1689 1714 1786 1856 1920 1940 1923 1894 1908 1958 1957 1836 1598 1337 1083 862 654 481 0 10 3 2 66 58 53
0 0 0 0 0 0 0 0 0 0 0 0 0 0 0 0 0 0 0 0 0 0 0 0 0 0 0 0 0 0 1 0 0 0 0 0 0 1 26 51 40 62 167 316 301 414 540 723 948 1124 1130 1159 1269 1374 1417 1440 1471 1524 1591 1622 1648 1697 1708 1711 1709 1726 1727 1741 1792 1856 1894 1867 1808 1806 1812 1861 1886 1895 1850 1814 1807 1872 1902 1835 1654 1385 1145 916 718 617 14 3 7 6 381 316 48
Wind_Speed
10 9 10 9 8 10 11 12 10 12 12 nan nan 13 16 15 14 15 18 18 21 19 18 11 13 13 14 15 9 9 15 nan 18 nan nan 10 6 5 8 5 5 8 9 9 10 10 10 11 12 3 5 7 9 10 9 8 9 9 9 10 11 10 10 9 9 10 10 11 12 12 12 12 12 12 11 11 10 10 9 8 7 6 6 5 4 4 4 4 4 4 3 3 3 3 3 2 1
6 7 6 6 6 10 10 11 10 8 10 nan nan 12 15 14 13 16 16 18 17 15 14 10 8 6 5 7 9 10 nan 15 16 14 nan 7 4 6 8 6 5 6 8 9 8 8 9 9 8 3 6 8 8 9 9 8 8 8 8 9 10 10 10 10 10 11 11 12 12 13 13 13 13 12 12 11 10 9 9 9 8 7 6 6 5 4 3 3 2 2 2 3 3 3 3 2 2
5 6 5 6 4 9 11 11 9 nan nan nan nan 12 11 12 16 14 15 17 11 5 5 6 4 4 8 9 7 13 nan 13 7 9 10 7 4 9 7 6 5 5 6 9 8 8 8 8 10 4 7 8 8 9 9 8 8 8 8 9 9 10 10 11 10 11 12 12 12 13 13 13 12 12 11 10 9 8 8 8 8 7 7 7 6 5 3 2 2 2 2 2 2 2 2 2 3
4 5 5 6 2 8 11 8 nan nan nan nan nan 11 12 nan 15 12 14 12 7 6 5 6 8 11 5 4 5 4 7 10 10 6 8 11 11 7 6 6 5 5 7 7 7 8 8 8 5 4 7 8 9 8 8 9 9 8 8 9 10 10 11 10 11 11 11 12 12 12 12 12 12 11 10 9 8 8 8 7 7 7 7 7 7 6 5 3 2 2 2 3 2 2 2 2 2
4 6 5 5 3 5 6 6 nan 8 11 nan nan nan 12 11 7 10 9 6 6 7 5 4 8 11 3 4 9 10 11 9 8 13 10 11 6 5 5 4 5 4 5 6 6 7 8 6 4 6 7 8 8 9 8 9 8 8 8 9 10 10 10 11 11 11 11 11 11 12 12 11 10 10 9 9 8 8 7 7 6 6 6 6 6 6 5 4 3 2 1 2 2 2 2 2 2
1 5 8 8 4 4 3 2 4 7 nan nan nan nan 9 7 10 11 7 5 3 3 5 3 6 11 9 8 8 7 3 8 9 8 8 10 3 3 4 4 4 3 4 4 5 7 7 6 7 7 7 8 8 9 9 8 8 8 8 9 9 10 11 11 11 10 11 11 10 10 10 10 10 9 9 9 9 8 7 6 6 6 7 6 7 7 6 4 3 3 2 2 2 3 3 3 3
1 5 8 10 10 6 5 4 4 5 12 nan nan 9 9 10 12 11 7 4 5 2 4 3 5 2 7 7 3 5 7 2 6 6 9 5 2 1 3 4 3 1 2 4 5 6 4 7 8 8 7 8 8 9 9 8 8 8 9 9 10 11 11 10 10 10 10 10 9 9 9 10 10 10 10 10 9 8 7 6 6 6 7 7 7 6 6 5 3 3 3 3 2 3 4 4 4
4 7 9 8 8 5 4 4 3 3 nan nan nan 7 11 11 10 9 9 9 10 7 7 6 7 2 7 9 4 4 1 4 7 7 4 2 2 0 3 4 2 1 1 3 4 5 4 9 9 8 7 8 9 9 9 8 8 8 9 9 10 10 10 10 10 10 10 9 9 9 9 10 10 11 11 11 10 8 7 6 6 6 7 7 6 6 5 4 2 2 3 3 3 3 3 5 4
5 8 8 8 8 4 1 2 1 3 7 10 nan 9 11 11 10 10 9 7 7 9 7 8 9 1 6 2 5 4 6 6 7 6 3 1 2 0 5 4 1 2 1 1 3 4 2 7 9 9 9 8 9 8 8 8 8 8 8 9 10 10 10 9 9 9 9 9 9 9 9 10 11 11 11 10 10 9 9 10 10 9 9 9 9 8 7 5 3 2 2 2 2 3 4 5 5
1 8 11 8 6 nan nan nan nan nan 6 nan 7 13 12 11 11 11 12 11 9 9 7 6 4 4 3 1 2 5 4 6 7 5 3 1 1 3 4 3 2 1 2 2 3 3 2 8 10 9 10 9 8 8 8 8 8 8 8 8 9 9 9 9 9 9 9 9 10 9 10 10 11 10 10 11 12 12 14 14 15 14 14 13 13 12 11 10 8 6 5 4 4 4 5 5 6
3 6 10 6 6 4 nan nan nan nan 7 8 6 10 13 11 11 10 8 8 8 6 4 6 2 7 2 5 7 6 2 6 7 5 2 2 2 3 4 3 2 2 3 2 3 2 1 2 10 9 10 10 9 8 8 7 8 8 8 9 9 8 8 8 9 9 10 10 9 10 10 11 11 11 12 13 14 15 17 18 18 18 18 17 17 16 15 14 12 11 10 9 8 7 7 7 6
3 5 5 7 8 nan nan nan nan nan nan 8 10 10 11 11 10 10 9 11 6 7 7 7 8 6 3 5 6 2 2 6 6 6 3 2 3 3 4 4 3 3 4 4 3 3 2 2 2 6 9 9 8 7 7 8 8 8 9 9 8 8 8 9 9 9 10 10 9 10 11 11 11 12 14 15 16 18 19 20 21 21 21 20 19 18 17 16 15 14 14 12 12 10 10 10 9
1 2 3 4 10 nan nan nan nan 4 8 11 11 10 12 14 14 14 9 5 8 8 9 7 11 4 0 5 5 1 3 5 7 8 5 3 4 4 4 4 4 5 5 5 4 3 2 1 2 3 4 10 8 8 8 8 8 9 9 9 9 8 9 9 9 10 10 10 10 10 11 12 13 15 16 17 19 20 21 21 22 22 22 21 20 19 18 17 16 16 14 14 14 14 13 12 11
1 3 5 7 nan nan nan nan nan nan nan 13 9 15 15 12 11 13 10 9 10 7 4 11 4 5 8 3 2 4 2 6 8 9 5 4 5 5 5 6 6 5 6 6 5 3 2 1 3 3 4 3 4 6 8 9 9 9 9 9 9 9 10 10 10 11 10 11 11 11 12 14 15 17 18 19 20 21 21 22 22 22 21 20 19 19 18 17 16 16 15 16 15 13 13 14 13
4 2 4 6 7 nan nan nan nan nan 14 14 14 19 13 8 12 11 17 13 6 4 8 4 5 5 5 10 3 5 2 7 8 9 7 6 6 6 7 7 7 6 6 6 5 4 2 1 3 5 4 5 5 7 8 8 9 9 9 11 10 10 10 11 11 11 11 12 12 13 14 15 17 18 19 20 21 22 22 23 23 22 20 19 18 18 17 17 17 17 16 17 16 14 15 14 13
5 5 4 5 7 nan nan nan nan nan 15 14 19 15 11 10 12 15 12 9 6 8 9 3 7 2 4 6 3 5 5 6 7 8 8 8 7 8 9 8 8 7 6 7 5 3 2 2 3 6 6 6 7 8 8 8 8 10 11 11 11 11 11 11 12 12 13 13 13 14 15 16 17 18 20 19 21 23 23 22 23 22 21 19 18 17 18 18 19 19 17 16 16 15 15 14 13
6 8 6 3 8 8 nan nan nan nan nan 14 18 19 16 15 13 3 6 9 16 13 4 2 4 3 8 1 11 10 7 6 7 9 10 8 8 7 8 8 8 7 6 6 5 3 3 2 3 6 7 7 8 8 8 8 8 9 9 11 11 11 11 12 12 13 13 13 14 15 16 15 16 17 18 17 22 20 22 23 23 22 21 19 18 17 17 18 17 17 16 15 15 15 15 15 14
6 6 3 8 11 10 nan nan nan nan nan 18 16 19 20 18 13 10 10 3 11 7 6 7 9 9 7 8 11 12 9 8 9 11 8 8 7 7 7 8 8 6 6 5 4 3 3 4 5 7 8 8 9 9 9 8 8 7 7 8 8 9 10 11 11 12 13 13 15 15 14 14 15 16 17 19 19 19 21 23 23 22 21 19 18 17 17 17 14 15 18 15 12 15 16 13 13
10 4 1 11 7 9 nan nan nan nan nan 22 18 19 24 22 20 17 12 11 11 8 7 9 10 10 10 9 12 12 11 10 10 9 11 10 8 8 8 8 7 7 6 5 4 2 3 5 7 8 9 9 8 9 9 9 7 9 8 8 8 9 9 10 10 11 12 13 14 13 13 14 14 16 16 18 18 21 20 23 23 22 20 19 17 17 17 17 16 19 17 15 15 17 15 16 14
10 6 6 11 10 10 nan nan nan nan nan 26 26 20 21 21 19 18 15 16 10 11 9 6 8 9 10 10 11 12 11 11 11 9 10 11 10 11 11 11 9 6 6 5 4 5 5 6 7 8 8 8 8 9 9 9 9 8 8 8 8 8 9 9 10 11 11 12 13 12 12 13 14 15 19 22 22 19 19 21 22 21 18 17 17 14 14 15 17 16 15 15 16 15 16 16 14
9 5 6 9 9 nan nan nan nan nan nan nan 27 20 18 24 23 20 21 17 10 8 13 16 12 13 12 14 13 12 11 11 11 9 9 9 9 9 10 10 10 7 5 6 5 4 5 7 8 8 8 8 8 9 9 9 9 8 8 8 8 8 8 9 9 10 11 12 12 12 12 12 13 15 16 17 17 16 15 15 15 14 12 13 14 12 12 13 13 12 13 13 13 14 15 15 14
12 9 10 10 10 nan nan nan nan nan nan nan 23 26 24 18 20 21 29 23 16 15 15 11 17 15 16 16 15 12 10 9 10 11 9 8 10 11 11 9 8 7 6 5 3 4 7 8 8 9 8 8 8 8 8 8 8 8 7 7 8 8 8 9 9 9 10 11 11 11 11 12 13 14 14 16 16 14 14 15 14 13 12 12 11 13 13 12 13 13 13 14 14 13 14 14 14
13 9 nan 9 nan nan nan nan nan nan nan nan 26 25 23 22 22 25 27 25 19 19 17 14 17 18 15 14 15 13 10 9 9 10 11 9 8 8 10 8 7 6 5 3 4 6 8 9 8 8 8 8 8 8 9 9 8 8 7 7 7 8 8 8 9 9 9 10 10 11 11 12 12 13 14 14 15 13 13 13 14 11 11 12 11 12 13 13 13 13 12 13 12 12 13 13 14
nan nan nan nan nan nan nan nan nan nan nan 22 23 24 26 20 20 21 19 5 13 19 18 14 11 14 15 14 14 15 12 11 10 9 10 9 7 7 8 9 7 6 4 3 4 7 9 8 9 8 8 7 7 8 8 9 8 7 7 7 7 8 8 9 9 8 8 9 9 10 10 10 11 12 13 12 13 11 12 11 11 12 12 12 12 12 13 13 13 13 13 12 12 12 12 11 11
nan nan nan nan nan nan nan nan nan nan nan nan 22 26 25 24 20 16 18 14 18 20 19 16 13 13 13 14 14 13 12 9 8 7 6 5 5 6 7 8 7 5 2 3 6 8 9 9 8 8 7 6 6 7 8 8 8 7 7 7 7 8 8 9 8 8 8 8 9 9 9 9 9 10 11 11 10 11 11 11 11 12 11 13 12 13 12 13 13 13 13 12 12 12 10 9 9
nan nan nan nan nan nan nan nan nan nan nan nan nan 25 22 18 9 19 14 17 19 20 20 18 15 14 14 15 15 14 13 13 9 7 6 4 5 7 7 7 7 4 2 4 7 10 10 9 7 6 5 5 5 6 7 7 7 6 7 7 7 8 9 8 8 7 7 7 8 7 8 8 9 9 10 9 9 11 10 10 10 12 12 12 12 13 12 12 14 13 12 13 12 11 10 9 8
nan nan nan nan nan nan nan nan nan nan nan nan nan nan 16 11 17 14 13 21 22 23 23 19 18 17 15 13 12 13 14 14 14 7 4 3 4 5 6 6 5 3 3 4 8 11 11 8 6 6 5 4 4 5 6 6 6 7 7 7 8 8 8 7 7 7 6 7 7 6 6 7 7 8 8 9 9 9 9 9 10 11 12 12 11 13 12 13 13 14 13 12 11 10 9 9 9
nan nan nan nan nan nan nan nan nan nan nan nan nan nan nan nan 16 20 22 26 29 29 26 22 18 16 15 14 11 9 10 11 10 8 8 6 3 3 5 5 4 3 3 5 10 12 10 7 5 5 4 4 4 5 5 6 7 7 7 7 8 8 7 7 7 7 7 7 6 6 6 7 7 7 7 8 8 8 9 9 10 10 11 11 11 11 10 11 12 12 11 10 10 9 8 10 11
nan nan nan nan nan nan nan nan nan nan nan nan nan nan nan nan nan 19 25 28 31 31 28 25 20 17 15 14 10 8 10 11 10 7 6 3 3 3 3 3 4 4 8 8 10 11 8 6 5 4 4 4 5 5 6 7 7 7 7 7 7 7 7 7 7 7 7 6 6 7 7 7 7 7 8 8 7 7 8 9 9 10 10 10 9 9 9 9 9 8 8 9 9 9 9 7 8
nan nan nan nan nan nan nan nan nan nan nan nan nan nan nan nan nan 22 25 27 30 30 28 25 19 17 15 14 12 8 8 10 10 6 4 2 2 2 1 2 3 5 8 11 11 9 8 8 6 5 4 5 5 6 6 6 7 8 8 7 8 7 7 7 8 8 8 7 7 7 7 8 8 8 7 7 7 7 8 9 9 10 10 10 9 9 10 9 9 9 9 10 8 9 8 7 nan
nan nan nan nan nan nan nan nan nan nan nan nan nan nan nan nan 16 26 27 28 31 30 29 26 20 18 16 15 12 11 12 11 11 7 4 1 1 1 0 3 3 5 10 11 10 9 7 6 5 6 5 5 6 6 6 7 6 7 7 8 7 7 7 8 8 8 8 7 6 7 7 8 8 8 8 8 8 8 8 10 10 11 10 9 10 10 11 9 10 10 10 10 10 8 8 8 8
nan nan nan nan nan nan nan nan nan nan nan nan nan nan nan 16 23 27 29 27 28 29 29 27 22 19 18 16 14 12 11 9 8 7 5 3 1 2 2 3 4 6 8 9 9 9 6 5 4 5 4 5 6 6 6 6 6 7 7 7 7 7 7 8 8 8 7 6 7 7 7 8 8 8 8 8 8 8 9 11 12 11 10 10 11 10 10 11 10 10 10 11 10 8 8 nan nan
nan nan nan nan nan nan nan nan nan nan nan nan nan nan nan 8 21 27 28 28 24 25 28 27 24 22 19 16 14 12 9 7 7 6 6 4 3 4 4 5 5 6 7 8 7 6 5 4 3 4 5 5 5 6 6 6 6 6 7 7 7 7 7 8 8 7 6 6 7 8 8 8 8 8 8 7 8 9 11 12 12 12 11 12 13 11 11 10 10 9 9 10 11 nan nan nan nan
nan nan nan nan nan nan nan nan nan nan nan nan nan nan nan 14 25 28 28 28 24 22 27 28 24 21 20 16 13 12 11 9 9 7 7 5 3 4 5 5 5 6 7 6 6 4 3 3 4 5 5 4 4 5 5 5 6 6 6 7 7 6 7 8 8 7 7 8 8 9 8 8 8 7 7 7 8 10 11 11 11 12 12 12 12 12 11 10 10 10 9 9 10 nan nan nan nan
nan nan nan nan nan nan nan nan nan nan nan nan nan nan nan 12 26 30 32 29 26 25 26 28 25 21 19 16 14 13 12 11 10 7 7 5 2 2 4 4 4 4 6 3 4 3 3 3 4 5 4 3 3 4 4 4 5 6 6 6 7 7 7 8 8 7 8 8 9 10 8 8 8 7 7 8 9 10 10 10 12 12 13 13 13 12 11 10 10 11 13 11 nan nan nan nan nan
nan nan nan nan nan nan nan nan nan nan nan nan nan nan nan 17 23 28 30 30 28 24 22 21 22 19 17 16 14 12 12 13 10 7 6 4 2 1 2 3 4 4 4 2 1 2 2 3 4 4 3 2 2 2 3 4 4 5 5 7 7 7 7 8 8 9 8 9 10 9 8 8 7 8 8 9 10 11 11 11 12 13 13 13 12 11 10 11 12 13 14 14 nan 11 11 10 9
nan nan nan nan nan nan nan nan nan nan nan nan nan nan nan 20 27 30 32 29 23 20 20 19 20 19 17 16 15 14 13 13 10 9 7 5 3 1 1 3 3 3 2 1 1 2 2 3 3 4 3 2 2 2 3 3 4 4 5 6 7 7 7 8 9 9 9 9 9 8 8 7 7 8 9 10 11 11 11 11 12 12 13 13 12 10 10 11 12 14 14 12 nan nan 11 nan nan
nan nan nan nan nan nan nan nan nan nan nan nan nan nan nan 18 22 27 29 28 26 25 22 20 21 22 19 18 17 15 13 7 8 7 7 5 3 3 0 2 2 1 3 2 3 3 3 3 4 4 2 3 5 5 4 4 4 5 4 5 5 6 7 7 9 9 9 8 8 7 7 7 8 10 11 11 11 12 12 12 12 13 13 12 10 8 9 9 11 12 14 nan 12 nan nan nan nan
nan nan nan nan nan nan nan nan nan nan nan nan nan nan nan 12 21 25 30 29 25 26 26 24 24 24 21 17 16 15 10 7 8 9 7 6 6 4 1 2 2 3 2 3 4 3 4 4 5 4 5 6 7 6 4 5 4 4 4 4 4 6 8 8 8 8 6 7 6 6 6 7 9 10 11 12 12 12 12 12 13 13 13 11 9 9 nan nan nan nan nan nan 14 13 11 11 11
nan nan nan nan nan nan nan nan nan nan nan nan nan nan nan 9 15 21 24 25 21 23 22 19 21 25 25 22 17 15 13 9 8 7 6 5 4 3 3 2 2 1 1 2 3 5 3 4 4 5 5 6 6 7 7 5 3 2 3 3 4 4 5 7 7 6 5 4 5 5 6 7 10 11 12 12 11 11 12 13 12 13 13 12 12 12 nan nan nan nan nan nan nan 15 nan 13 13
nan nan nan nan nan nan nan nan nan nan nan nan nan nan nan nan 15 12 13 17 14 15 14 10 12 16 21 21 17 16 16 11 9 7 5 4 3 4 4 2 1 2 2 3 4 3 1 5 6 7 6 7 7 7 7 4 1 2 3 5 5 4 7 3 4 5 4 4 3 4 7 8 10 11 11 12 11 11 11 12 13 13 13 12 12 13 13 nan nan nan nan nan nan nan nan nan nan
nan nan nan nan nan nan nan nan nan nan nan nan nan nan nan nan nan nan 19 19 12 13 15 14 14 12 12 16 18 14 12 12 13 12 9 7 5 3 2 2 3 4 4 4 3 4 3 2 4 6 5 5 6 7 7 4 3 2 1 1 1 1 3 2 5 5 3 3 5 4 6 9 10 10 11 11 10 10 12 13 14 14 13 13 13 14 14 13 nan nan nan nan nan nan nan nan nan
nan nan nan nan nan nan nan nan nan nan nan nan nan nan nan nan nan nan nan 18 18 16 14 15 14 13 13 16 18 17 14 10 7 6 7 7 6 6 6 6 6 5 5 4 4 5 7 6 6 7 6 6 6 6 8 5 4 2 3 4 3 5 5 4 3 3 4 3 4 7 8 9 10 11 11 10 10 10 11 13 14 14 13 13 13 14 15 16 nan nan nan nan nan 17 nan nan nan
nan nan nan nan nan nan nan nan nan nan nan nan nan nan nan nan nan nan nan nan nan 14 9 13 16 16 15 14 18 20 18 15 11 8 7 6 7 8 9 9 6 6 5 4 5 6 8 7 6 6 5 5 5 6 7 7 5 4 4 4 3 3 4 3 3 3 5 6 6 7 8 9 11 11 11 10 10 11 12 13 14 13 13 14 15 16 17 16 nan nan nan nan nan 17 nan nan nan
nan nan nan nan nan nan nan nan nan nan nan nan nan nan nan nan nan nan nan nan nan nan 11 16 18 17 15 15 17 19 19 18 14 10 9 8 7 6 7 7 8 9 7 6 6 6 7 7 7 6 5 4 4 6 7 7 5 5 5 4 3 2 3 2 5 7 7 7 7 7 9 10 11 12 11 10 10 11 12 13 13 13 14 15 15 16 16 17 nan nan nan nan 17 nan nan nan nan
nan nan nan nan nan nan nan nan nan nan nan nan nan nan nan nan nan nan nan nan nan nan nan nan nan 17 16 15 15 16 16 15 13 12 nan nan nan 8 8 9 8 8 8 7 7 6 7 8 7 7 6 4 3 5 6 7 7 5 5 4 5 3 3 5 9 8 8 9 9 9 9 10 12 12 11 9 9 10 12 12 11 13 15 15 15 16 15 nan nan nan nan nan nan nan nan nan nan
nan nan nan nan nan nan nan nan nan nan nan nan nan nan nan nan nan nan nan nan nan nan nan nan nan nan nan nan nan nan 15 15 nan nan nan nan nan nan 7 7 7 6 3 5 6 6 7 8 8 8 8 5 5 6 7 8 6 5 4 5 6 6 6 7 9 9 10 10 9 10 10 11 13 13 12 9 9 10 10 10 10 12 13 14 15 15 15 16 nan nan nan nan nan nan nan nan 19
nan nan nan nan nan nan nan nan nan nan nan nan nan nan nan nan nan nan nan nan nan nan nan nan nan nan nan nan nan nan nan nan nan nan nan nan nan nan nan nan 4 5 4 4 4 5 6 7 8 9 9 8 7 7 7 8 7 6 5 5 6 6 7 7 9 10 11 11 10 11 11 13 13 13 12 10 9 10 9 8 9 11 13 14 15 15 15 16 nan nan nan nan nan nan nan 19 nan
nan nan nan nan nan nan nan nan nan nan nan nan nan nan nan nan nan nan nan nan nan nan nan nan nan nan nan nan nan nan nan nan nan nan nan nan nan nan nan nan nan 3 4 5 5 5 5 6 9 11 11 10 9 9 9 9 8 8 7 7 5 6 7 8 9 9 11 12 12 12 14 14 15 14 12 11 10 11 9 8 9 12 13 13 14 15 15 17 nan nan nan nan nan nan nan nan nan
nan nan nan nan nan nan nan nan nan nan nan nan nan nan nan nan nan nan nan nan nan nan nan nan nan nan nan nan nan nan nan nan nan nan nan nan nan nan nan nan nan 6 7 7 7 7 6 5 7 10 11 11 10 9 9 9 9 9 10 9 8 8 8 9 9 10 11 12 13 13 14 16 17 16 14 11 10 10 8 9 10 11 12 12 13 15 16 17 nan nan nan nan nan nan nan nan nan
nan nan nan nan nan nan nan nan nan nan nan nan nan nan nan nan nan nan nan nan nan nan nan nan nan nan nan nan nan nan nan nan nan nan nan nan nan nan nan nan 11 11 12 12 10 9 9 8 8 9 8 9 10 10 9 9 7 9 10 11 10 10 10 11 10 11 12 13 14 14 15 16 17 15 13 10 8 7 8 7 9 10 11 12 13 15 16 18 18 nan nan nan nan nan nan nan nan
nan nan nan nan nan nan nan nan nan nan nan nan nan nan nan nan nan nan nan nan nan nan nan nan nan nan nan nan nan nan nan nan nan nan nan nan nan nan nan nan 13 13 15 15 15 13 11 10 11 11 11 11 12 11 11 10 9 10 11 12 12 12 13 13 13 13 13 13 14 16 16 17 16 15 12 9 6 6 7 7 8 9 9 11 13 16 17 18 19 nan nan nan nan nan nan nan nan
nan nan nan nan nan nan nan nan nan nan nan nan nan nan nan nan nan nan nan nan nan nan nan nan nan nan nan nan nan nan nan nan nan nan nan nan nan nan nan nan nan 16 16 17 18 17 16 14 14 13 12 13 14 14 14 14 13 13 13 13 14 15 15 15 15 15 14 15 16 16 16 17 16 14 10 6 5 5 6 7 7 8 9 11 14 16 18 18 19 nan nan nan nan nan nan nan nan
nan nan nan nan nan nan nan nan nan nan nan nan nan nan nan nan nan nan nan nan nan nan nan nan nan nan nan nan nan nan nan nan nan nan nan nan nan nan nan nan nan 18 18 18 20 19 17 17 17 18 17 16 15 16 16 16 17 16 16 16 16 16 16 16 17 18 17 17 17 16 16 16 16 13 8 5 4 5 5 7 7 8 10 11 14 16 17 18 17 nan nan nan nan nan nan nan nan
nan nan nan nan nan nan nan nan nan nan nan nan nan nan nan nan nan nan nan nan nan nan nan nan nan nan nan nan nan nan nan nan nan nan nan nan nan nan nan nan nan nan 18 18 20 21 19 17 18 20 20 19 19 18 18 18 19 18 19 18 18 18 18 19 20 20 19 17 16 17 16 15 14 12 7 6 4 4 5 5 6 8 10 12 14 15 16 16 15 nan nan nan nan nan nan nan nan
nan nan nan nan nan nan nan nan nan nan nan nan nan nan nan nan nan nan nan nan nan nan nan nan nan nan nan nan nan nan nan nan nan nan nan nan nan nan nan nan nan nan 17 17 20 20 19 18 20 19 17 17 18 18 19 20 20 20 20 21 20 21 21 20 21 21 19 17 16 18 16 14 12 10 7 6 5 4 5 6 7 8 10 12 14 14 15 16 16 15 nan nan nan nan nan nan nan
nan nan nan nan nan nan nan nan nan nan nan nan nan nan nan nan nan nan nan nan nan nan nan nan nan nan nan nan nan nan nan nan nan nan nan nan nan nan nan nan nan nan 17 19 21 20 17 18 18 18 18 18 18 18 19 18 20 19 20 21 22 22 21 21 20 19 18 17 17 17 16 13 12 9 8 7 5 4 4 6 8 9 11 13 13 14 14 15 16 16 nan nan nan nan nan nan nan
nan nan nan nan nan nan nan nan nan nan nan nan nan nan nan nan nan nan nan nan nan nan nan nan nan nan nan nan nan nan nan nan nan nan nan nan nan nan nan nan nan nan 18 19 18 16 16 16 16 16 16 16 18 18 18 19 19 19 19 20 21 21 21 20 19 18 17 17 16 15 15 14 9 9 9 7 6 5 5 7 8 10 12 12 13 14 15 16 17 18 nan nan nan nan 26 27 nan
Wind_Direction
10 22 25 35 47 54 54 57 67 72 72 nan nan 75 81 79 73 73 74 76 77 76 78 78 77 90 78 80 72 84 119 nan 101 nan nan 96 74 52 96 105 103 103 108 114 120 124 130 124 110 346 315 303 307 311 312 319 317 309 311 316 315 313 315 321 327 330 329 329 333 331 328 328 328 330 333 334 335 336 335 337 343 345 348 357 7 3 3 356 346 3 341 301 286 278 264 245 256
18 13 20 37 50 59 68 59 64 83 86 nan nan 76 80 82 80 72 71 70 84 76 82 73 77 84 94 53 43 78 nan 118 108 109 nan 92 63 101 97 92 79 86 99 111 116 123 123 115 89 14 328 322 323 326 323 324 318 309 311 317 316 314 317 322 329 332 334 336 335 331 327 327 331 333 332 330 333 337 337 345 356 1 9 14 19 12 358 348 345 340 334 307 287 282 282 289 285
15 12 11 65 54 76 85 73 75 nan nan nan nan 73 80 79 80 77 74 72 78 58 75 94 53 47 59 88 111 111 nan 114 110 103 109 62 34 88 90 94 97 97 96 114 112 116 113 98 69 4 336 332 335 335 331 325 315 313 317 318 315 315 317 324 333 338 336 337 335 330 329 331 332 332 330 331 336 340 344 350 2 11 20 26 29 28 13 353 337 325 311 288 293 288 286 290 294
26 51 18 46 68 86 92 86 nan nan nan nan nan 74 59 nan 75 77 76 73 35 12 40 69 92 87 47 136 98 148 115 105 104 64 92 78 101 84 91 89 104 112 115 113 111 118 118 70 42 351 333 336 341 339 333 323 316 316 319 318 317 316 323 332 337 339 339 339 336 334 333 332 332 332 334 338 342 347 349 355 4 13 24 34 38 38 33 18 356 327 290 275 281 295 305 319 308
47 61 60 98 102 116 101 86 nan 95 86 nan nan nan 68 66 60 60 69 47 33 25 35 74 108 111 47 4 84 100 95 126 91 112 117 122 122 97 94 99 109 107 103 103 109 113 108 35 10 341 333 337 341 337 333 324 317 321 325 323 320 323 331 339 343 341 343 345 343 338 335 335 334 337 342 349 354 355 356 358 6 17 26 35 43 46 44 39 33 6 325 285 285 296 320 327 322
146 83 86 108 92 82 92 112 111 97 nan nan nan nan 65 46 25 40 40 65 67 56 49 75 80 85 113 111 96 102 74 96 103 136 114 113 66 75 92 103 110 110 108 115 112 117 111 19 353 343 339 337 337 335 333 328 324 328 332 330 328 332 341 348 347 344 352 352 349 345 339 338 344 349 354 359 2 3 1 3 13 22 29 33 41 49 53 51 45 51 45 22 340 334 335 331 324
76 89 80 81 76 43 3 5 72 76 102 nan nan 73 24 30 26 11 15 36 110 147 84 30 333 24 124 98 121 86 99 160 120 124 132 104 85 83 101 115 117 113 121 123 116 116 100 4 349 347 343 339 336 338 337 334 335 338 338 337 338 344 351 354 352 353 358 358 355 352 347 349 354 358 4 7 7 7 3 8 18 28 31 34 40 48 54 53 56 64 66 57 37 6 13 354 340
88 106 67 68 73 18 26 1 53 19 nan nan nan 42 31 23 20 24 23 22 35 51 17 12 79 45 134 124 93 110 130 168 187 196 218 139 93 79 144 136 126 31 92 119 124 127 36 358 351 350 350 344 340 343 341 343 343 348 347 346 351 355 357 359 359 1 3 3 4 360 356 0 4 10 15 20 21 20 22 27 35 38 39 38 42 44 45 43 48 71 87 76 61 46 20 19 9
68 107 84 79 63 22 315 340 20 25 99 95 nan 18 25 16 19 19 25 37 12 21 19 358 41 288 84 174 147 136 157 248 230 249 251 250 112 204 158 151 147 138 98 133 142 141 70 360 356 353 353 353 348 347 348 350 356 0 359 359 1 3 3 5 7 8 11 13 13 11 9 13 17 22 26 33 39 43 49 56 62 60 58 59 57 55 52 52 53 65 94 86 66 41 27 14 13
216 110 85 65 49 nan nan nan nan nan 66 nan 13 2 8 14 17 22 4 11 26 12 19 52 96 330 343 171 160 148 136 255 266 249 248 249 190 179 190 174 189 242 183 179 164 151 118 1 354 357 358 3 358 358 356 358 11 11 11 12 10 9 9 12 15 17 23 25 23 20 21 26 28 31 37 44 50 55 61 66 69 70 69 69 67 63 62 62 63 69 77 84 74 49 35 20 13
238 100 86 90 75 57 nan nan nan nan 89 62 43 12 4 9 11 12 25 357 17 26 356 307 271 323 356 131 146 157 263 271 275 288 276 267 216 205 217 202 234 253 220 219 187 168 136 58 352 358 8 4 4 8 6 14 24 26 24 23 18 16 16 19 24 30 33 34 32 28 29 32 37 41 45 51 56 60 63 66 68 69 69 69 66 64 61 60 63 64 65 69 74 63 54 44 29
213 90 64 65 68 nan nan nan nan nan nan 47 47 26 27 1 5 4 3 351 17 7 19 32 37 340 234 122 132 161 297 284 270 273 267 244 208 222 229 207 249 251 265 249 212 194 206 120 24 14 8 5 9 13 21 30 36 39 38 30 25 21 23 25 31 38 39 38 36 35 35 40 46 51 54 56 61 64 64 65 67 68 68 67 67 65 63 62 62 63 63 64 72 73 67 57 50
222 86 38 73 66 nan nan nan nan 55 65 59 38 29 9 357 12 0 0 356 1 357 34 74 351 53 264 119 147 192 331 295 274 282 278 210 212 209 219 224 236 251 268 265 241 220 242 168 132 86 35 15 8 21 33 41 46 44 40 36 31 27 28 32 36 41 44 43 42 42 44 49 55 59 61 63 65 66 67 67 68 69 68 69 69 70 69 66 66 69 69 65 65 64 68 65 59
11 29 9 59 nan nan nan nan nan nan nan 58 37 359 9 11 23 353 340 349 3 22 37 328 19 306 262 223 144 105 53 305 292 290 267 240 219 216 233 230 249 257 267 274 269 248 259 191 140 128 104 84 102 48 44 46 48 45 44 46 35 31 33 36 40 44 46 48 50 51 55 59 60 62 64 65 66 68 69 70 71 72 72 72 73 75 76 73 70 70 69 67 65 60 57 61 62
74 102 61 26 39 nan nan nan nan nan 51 60 20 355 18 36 347 2 354 337 7 307 313 309 9 286 39 356 23 75 49 320 303 290 286 272 254 233 235 232 248 255 266 276 273 261 258 190 140 139 132 136 123 122 122 83 45 45 46 45 38 37 37 40 42 47 49 53 56 60 64 65 67 66 65 65 67 68 69 71 73 74 75 75 77 79 78 79 76 73 71 65 69 64 61 57 62
82 93 57 37 17 nan nan nan nan nan 47 37 20 355 348 353 353 351 21 348 327 322 327 339 54 121 0 64 321 325 330 310 296 290 280 287 263 240 240 247 253 263 267 275 271 250 228 189 149 142 144 134 134 133 125 118 67 44 44 41 41 40 40 43 45 50 54 59 63 69 70 77 74 77 66 71 67 67 69 71 74 74 75 76 78 78 79 81 79 77 74 71 72 68 65 60 56
71 60 81 59 80 6 nan nan nan nan nan 13 14 357 354 359 5 12 337 332 316 342 17 264 67 173 330 8 317 305 310 292 286 288 281 260 247 239 241 244 255 265 265 274 265 247 226 199 160 150 140 137 138 136 132 122 97 47 54 48 42 44 46 46 51 54 60 69 76 76 78 88 91 89 82 82 72 76 71 73 73 75 75 76 78 79 80 80 84 84 84 81 78 82 75 61 58
101 53 17 95 82 76 nan nan nan nan nan 8 9 9 349 353 7 343 316 312 303 315 250 225 209 227 267 295 307 312 309 303 300 299 271 259 250 242 248 252 267 279 273 268 264 244 224 183 168 156 148 139 143 142 138 130 124 81 108 98 92 72 62 60 69 90 80 100 76 86 94 95 90 88 89 76 83 78 77 73 75 76 75 77 79 80 82 82 83 88 81 71 70 71 80 65 51
87 131 290 95 131 89 nan nan nan nan nan 9 360 6 359 5 346 2 329 325 318 287 255 250 237 244 265 289 308 313 319 311 305 301 299 291 287 286 269 262 275 278 278 256 233 248 200 179 163 153 146 144 144 144 141 134 129 118 119 113 107 76 90 84 98 91 104 100 103 99 97 95 89 88 88 84 80 76 75 75 76 78 78 78 80 81 79 78 68 63 65 67 61 63 65 66 57
90 133 126 112 113 139 nan nan nan nan nan 4 350 4 5 3 356 1 338 334 328 334 315 278 292 292 301 304 313 311 313 317 311 296 301 304 305 304 301 300 283 283 280 271 242 193 187 167 154 150 144 145 143 144 144 137 133 125 119 118 112 112 108 108 103 104 106 104 104 100 95 92 88 87 83 73 74 78 80 78 77 78 78 80 81 77 81 80 82 80 77 67 62 55 54 59 58
148 125 126 141 160 nan nan nan nan nan nan nan 351 353 355 8 6 358 337 328 358 22 4 337 343 328 322 324 319 315 316 324 317 296 297 299 293 286 291 295 294 281 259 246 223 180 166 161 159 150 149 147 142 141 137 129 132 127 122 119 116 115 114 118 106 110 108 105 105 100 98 93 90 85 88 91 91 85 79 81 83 85 83 81 83 78 71 70 67 68 64 63 53 50 51 53 49
159 79 92 121 155 nan nan nan nan nan nan nan 356 344 352 10 19 357 344 349 3 17 20 355 334 333 333 336 329 318 321 326 319 306 299 301 306 298 287 282 277 266 246 235 225 177 155 156 154 154 150 142 136 133 127 122 122 125 122 118 117 119 117 117 112 106 106 103 105 100 96 89 86 86 86 88 88 89 83 80 80 83 85 82 80 76 74 67 61 52 53 52 51 45 45 45 42
138 151 nan 132 nan nan nan nan nan nan nan nan 1 346 335 10 32 13 354 354 9 356 341 341 340 338 337 330 328 331 328 332 327 316 298 292 286 286 286 276 272 269 244 213 208 173 157 153 150 151 142 140 129 134 136 129 125 126 127 120 117 115 119 118 111 109 104 105 100 94 84 82 80 79 82 83 86 86 82 80 80 80 78 77 73 70 69 65 59 54 47 44 43 41 42 40 37
nan nan nan nan nan nan nan nan nan nan nan 24 359 337 343 14 33 30 11 341 326 320 325 331 327 323 329 338 353 349 345 340 338 323 310 304 300 299 288 283 260 240 227 198 181 169 154 141 144 142 139 136 134 132 131 124 129 125 119 114 110 109 115 115 112 106 106 99 95 88 84 76 73 75 79 79 81 82 81 80 81 80 75 71 68 60 60 60 58 52 43 38 36 39 39 36 25
nan nan nan nan nan nan nan nan nan nan nan nan 350 346 356 16 33 22 28 324 318 313 314 321 329 336 344 345 358 1 354 347 339 323 299 274 294 291 287 270 264 247 225 178 170 164 149 143 141 133 134 120 127 125 121 125 129 124 122 117 110 104 113 113 113 116 106 100 95 87 83 72 75 77 77 77 79 79 80 79 77 77 73 70 64 62 51 50 51 50 47 42 31 37 35 38 29
nan nan nan nan nan nan nan nan nan nan nan nan nan 357 3 23 17 22 15 324 316 317 321 328 336 347 357 359 0 4 4 358 348 337 335 296 294 303 302 282 269 261 196 180 166 156 156 148 131 121 118 116 116 119 122 123 125 121 116 112 114 106 109 115 126 118 109 102 97 90 79 71 68 68 71 74 69 74 75 76 75 74 69 68 63 61 49 40 41 41 40 38 30 23 22 29 31
nan nan nan nan nan nan nan nan nan nan nan nan nan nan 354 15 357 41 15 333 321 326 329 335 343 356 4 2 4 10 3 358 357 340 319 297 303 307 294 281 279 262 213 166 159 158 158 151 131 118 113 114 126 113 121 118 129 121 116 117 117 108 113 124 126 122 111 101 98 93 82 74 66 65 63 62 64 65 70 69 68 67 69 66 54 53 43 33 29 28 28 33 35 19 16 14 13
nan nan nan nan nan nan nan nan nan nan nan nan nan nan nan nan 9 13 360 344 333 332 335 339 348 358 4 4 2 10 9 358 346 339 348 333 308 298 297 283 278 236 186 156 160 163 160 141 129 118 110 115 119 114 122 118 115 114 116 119 114 117 127 128 123 117 103 98 99 92 79 72 71 67 60 59 57 60 64 63 63 58 60 59 46 41 35 22 19 23 25 25 20 10 8 11 11
nan nan nan nan nan nan nan nan nan nan nan nan nan nan nan nan nan 2 349 341 335 333 337 342 349 357 3 8 1 8 11 359 352 345 350 333 286 246 288 257 231 198 172 162 163 161 150 144 135 115 112 118 112 105 109 111 114 113 114 114 119 122 126 126 115 104 101 98 94 82 74 67 71 65 61 58 59 53 59 61 60 55 52 47 34 25 18 11 12 12 18 7 9 2 8 7 7
nan nan nan nan nan nan nan nan nan nan nan nan nan nan nan nan nan 344 342 340 332 329 338 343 348 354 2 7 8 6 12 7 6 359 342 332 318 285 290 218 202 178 170 164 165 154 158 160 154 149 122 112 106 112 114 116 109 111 117 123 125 124 124 116 105 103 100 96 86 77 71 67 64 64 61 65 61 52 50 50 48 49 42 31 18 8 5 360 360 0 359 355 352 357 356 357 nan
nan nan nan nan nan nan nan nan nan nan nan nan nan nan nan nan 349 345 343 339 336 333 336 342 346 352 360 6 8 9 17 23 10 360 14 15 176 173 169 182 169 164 167 163 154 156 162 161 162 154 125 113 111 105 103 107 115 113 117 125 124 118 117 109 103 101 98 92 84 80 71 70 66 62 62 59 57 45 40 39 36 33 26 11 5 357 352 347 348 354 345 345 340 346 351 341 325
nan nan nan nan nan nan nan nan nan nan nan nan nan nan nan 2 352 351 345 345 340 332 332 339 346 351 357 2 6 12 20 28 23 16 31 43 73 128 112 126 146 157 158 159 161 165 156 161 149 137 117 103 103 95 104 107 111 114 119 121 120 113 110 104 101 96 94 95 88 83 79 74 71 64 57 49 48 36 29 27 24 20 9 357 349 343 338 347 349 347 343 341 340 341 336 nan nan
nan nan nan nan nan nan nan nan nan nan nan nan nan nan nan 4 356 352 348 343 343 333 333 338 346 350 355 0 3 10 13 34 45 40 38 51 111 127 127 133 141 148 158 159 164 166 154 143 121 107 92 82 86 93 106 120 120 115 115 114 106 109 104 102 102 103 101 94 91 86 82 76 73 62 51 38 29 24 22 18 14 5 357 351 342 339 343 348 350 351 346 336 340 nan nan nan nan
nan nan nan nan nan nan nan nan nan nan nan nan nan nan nan 350 350 353 351 345 339 338 336 338 343 348 354 358 359 2 12 16 36 56 51 47 127 103 120 129 131 138 150 158 164 166 134 134 127 114 112 82 85 89 102 115 118 117 121 119 115 105 102 106 105 108 99 95 91 87 83 73 67 55 44 28 18 15 11 3 355 350 343 339 335 336 352 352 349 350 358 347 337 nan nan nan nan
nan nan nan nan nan nan nan nan nan nan nan nan nan nan nan 346 346 351 350 348 341 339 334 335 338 341 348 357 359 3 9 12 27 49 54 55 67 88 110 109 115 129 155 152 163 167 161 128 123 103 102 81 79 85 101 120 126 131 133 123 118 113 116 112 110 108 101 94 86 84 80 69 59 42 30 16 7 7 357 346 340 337 333 334 333 339 351 354 352 356 358 0 nan nan nan nan nan
nan nan nan nan nan nan nan nan nan nan nan nan nan nan nan 329 345 349 347 347 345 341 331 324 330 336 345 354 359 1 5 16 15 21 46 76 114 112 122 133 135 141 157 164 127 140 125 125 122 116 105 82 94 99 110 119 134 124 118 131 128 119 116 115 113 106 102 92 84 79 71 61 47 27 14 5 1 355 348 344 339 335 336 333 333 337 348 352 356 355 360 350 nan 346 338 338 337
nan nan nan nan nan nan nan nan nan nan nan nan nan nan nan 331 344 346 343 341 343 343 340 330 327 332 345 355 1 3 3 13 3 2 17 42 61 108 159 171 156 142 136 89 55 69 79 84 94 69 80 54 49 57 71 71 78 102 115 100 100 115 116 117 113 108 98 92 81 70 59 48 32 13 6 359 360 354 353 350 343 343 341 341 339 347 352 354 352 349 344 341 nan nan 335 nan nan
nan nan nan nan nan nan nan nan nan nan nan nan nan nan nan 336 341 336 330 338 352 353 350 342 336 338 345 356 1 1 9 8 351 355 1 10 43 40 130 160 153 89 113 93 51 47 60 58 51 51 61 42 36 36 48 57 69 72 81 96 117 119 119 108 102 101 90 88 78 63 48 34 20 9 4 3 359 356 359 359 356 354 349 349 351 347 346 343 335 331 330 nan 328 nan nan nan nan
nan nan nan nan nan nan nan nan nan nan nan nan nan nan nan 331 331 322 328 346 351 351 353 350 341 341 340 348 3 3 354 359 359 6 358 358 12 23 60 112 115 56 54 67 66 55 44 44 46 34 37 26 31 28 30 48 58 75 78 115 93 122 119 109 102 96 93 82 69 53 37 23 11 7 2 1 359 1 4 3 7 359 356 353 346 350 nan nan nan nan nan nan 329 327 336 334 327
nan nan nan nan nan nan nan nan nan nan nan nan nan nan nan 258 279 311 330 338 341 352 357 347 344 342 336 343 359 3 0 348 349 2 14 4 357 18 40 69 73 98 107 66 43 40 46 41 29 23 26 23 22 24 29 40 50 93 121 146 130 105 120 127 122 121 103 83 61 38 25 9 4 1 358 357 358 1 3 8 7 2 1 357 350 349 nan nan nan nan nan nan nan 337 nan 343 334
nan nan nan nan nan nan nan nan nan nan nan nan nan nan nan nan 264 275 309 324 325 351 354 354 4 355 338 340 353 360 357 345 337 344 11 17 359 14 25 26 338 22 37 37 33 37 117 21 14 10 12 14 16 17 18 10 21 177 181 189 182 163 174 155 146 123 98 68 37 12 10 353 354 354 353 354 353 359 2 1 2 4 360 359 352 350 350 nan nan nan nan nan nan nan nan nan nan
nan nan nan nan nan nan nan nan nan nan nan nan nan nan nan nan nan nan 300 299 337 342 347 3 8 3 336 333 347 356 4 350 341 341 354 8 3 337 4 5 12 33 21 13 359 2 4 14 0 4 4 5 10 9 2 346 6 1 282 241 215 132 80 48 47 47 49 35 20 348 340 342 343 345 347 351 351 348 357 358 358 360 0 356 354 354 353 348 nan nan nan nan nan nan nan nan nan
nan nan nan nan nan nan nan nan nan nan nan nan nan nan nan nan nan nan nan 309 337 318 349 11 8 6 353 344 339 343 353 353 350 339 339 345 349 332 346 4 21 23 22 334 323 341 356 0 1 1 1 1 2 353 345 343 355 3 3 17 20 19 32 55 37 20 355 344 315 336 338 331 337 340 343 344 346 347 350 355 357 360 0 356 353 349 351 351 nan nan nan nan nan 345 nan nan nan
nan nan nan nan nan nan nan nan nan nan nan nan nan nan nan nan nan nan nan nan nan 317 356 21 15 14 13 4 351 343 342 345 343 346 341 348 349 344 346 360 3 12 1 315 325 329 345 354 352 1 2 358 351 340 338 341 347 348 351 10 17 10 19 27 342 333 285 296 318 327 322 329 332 336 338 341 343 345 346 353 356 358 358 356 351 352 352 349 nan nan nan nan nan 349 nan nan nan
nan nan nan nan nan nan nan nan nan nan nan nan nan nan nan nan nan nan nan nan nan nan 32 33 24 19 24 21 7 350 339 337 340 342 344 343 351 2 354 351 0 358 343 338 334 322 327 333 341 353 5 358 343 338 334 344 345 342 344 346 347 340 358 322 267 269 280 294 311 308 318 325 330 334 337 340 340 342 347 351 354 358 358 355 352 349 348 344 nan nan nan nan 352 nan nan nan nan
nan nan nan nan nan nan nan nan nan nan nan nan nan nan nan nan nan nan nan nan nan nan nan nan nan 15 18 15 9 354 330 318 329 345 nan nan nan 4 7 6 2 357 349 347 336 317 314 314 332 344 1 350 327 331 335 346 351 337 335 329 337 328 289 259 264 280 286 291 310 312 312 319 329 331 333 335 334 340 348 348 354 1 359 352 350 350 348 nan nan nan nan nan nan nan nan nan nan
nan nan nan nan nan nan nan nan nan nan nan nan nan nan nan nan nan nan nan nan nan nan nan nan nan nan nan nan nan nan 323 314 nan nan nan nan nan nan 13 21 24 12 356 349 345 339 323 322 334 341 356 342 332 334 333 345 345 333 325 322 335 336 317 285 277 280 282 286 302 303 308 318 322 329 326 329 333 337 348 349 356 3 355 351 350 350 354 356 nan nan nan nan nan nan nan nan 349
nan nan nan nan nan nan nan nan nan nan nan nan nan nan nan nan nan nan nan nan nan nan nan nan nan nan nan nan nan nan nan nan nan nan nan nan nan nan nan nan 36 16 0 2 4 347 335 330 329 342 347 347 337 335 334 340 334 332 312 319 329 329 313 293 298 302 300 305 307 303 298 301 315 319 321 322 328 337 344 351 360 356 353 351 355 354 353 353 nan nan nan nan nan nan nan 346 nan
nan nan nan nan nan nan nan nan nan nan nan nan nan nan nan nan nan nan nan nan nan nan nan nan nan nan nan nan nan nan nan nan nan nan nan nan nan nan nan nan nan 343 343 342 336 329 332 334 339 343 349 342 336 333 338 340 330 323 313 310 308 297 299 297 294 298 294 299 299 297 295 306 308 313 321 325 333 339 342 352 358 356 354 354 352 349 351 347 nan nan nan nan nan nan nan nan nan
nan nan nan nan nan nan nan nan nan nan nan nan nan nan nan nan nan nan nan nan nan nan nan nan nan nan nan nan nan nan nan nan nan nan nan nan nan nan nan nan nan 316 320 315 315 311 304 311 337 347 350 334 329 326 336 336 334 322 312 306 301 292 291 290 286 288 290 292 295 301 304 307 309 320 321 330 329 335 347 359 357 358 353 347 346 348 345 343 nan nan nan nan nan nan nan nan nan
nan nan nan nan nan nan nan nan nan nan nan nan nan nan nan nan nan nan nan nan nan nan nan nan nan nan nan nan nan nan nan nan nan nan nan nan nan nan nan nan 308 310 313 309 301 307 304 311 320 337 335 324 321 323 315 328 316 311 303 300 295 285 284 279 279 281 287 293 291 297 301 301 305 311 318 321 314 338 352 348 354 356 348 343 341 340 340 338 343 nan nan nan nan nan nan nan nan
nan nan nan nan nan nan nan nan nan nan nan nan nan nan nan nan nan nan nan nan nan nan nan nan nan nan nan nan nan nan nan nan nan nan nan nan nan nan nan nan 302 304 310 307 311 309 311 313 310 318 321 313 311 308 304 306 300 287 293 293 293 289 278 275 274 274 277 283 287 295 301 302 303 306 307 303 322 338 344 348 351 357 346 338 336 335 337 340 345 nan nan nan nan nan nan nan nan
nan nan nan nan nan nan nan nan nan nan nan nan nan nan nan nan nan nan nan nan nan nan nan nan nan nan nan nan nan nan nan nan nan nan nan nan nan nan nan nan nan 302 302 311 314 313 317 309 302 305 306 301 306 306 303 295 291 285 287 286 283 282 284 284 281 282 283 280 284 289 295 299 297 296 296 293 317 330 335 344 349 351 341 336 332 335 339 343 349 nan nan nan nan nan nan nan nan
nan nan nan nan nan nan nan nan nan nan nan nan nan nan nan nan nan nan nan nan nan nan nan nan nan nan nan nan nan nan nan nan nan nan nan nan nan nan nan nan nan 303 310 315 314 309 307 306 309 312 309 313 306 300 296 289 289 286 282 283 281 281 281 282 279 280 279 279 281 284 284 284 291 292 285 272 293 320 326 340 344 341 336 328 335 335 340 347 351 nan nan nan nan nan nan nan nan
nan nan nan nan nan nan nan nan nan nan nan nan nan nan nan nan nan nan nan nan nan nan nan nan nan nan nan nan nan nan nan nan nan nan nan nan nan nan nan nan nan nan 308 310 307 304 301 305 311 315 321 322 316 306 301 292 291 278 274 279 281 277 273 273 274 276 277 281 285 283 284 285 282 280 267 255 271 294 311 324 329 333 324 330 331 338 344 350 350 nan nan nan nan nan nan nan nan
nan nan nan nan nan nan nan nan nan nan nan nan nan nan nan nan nan nan nan nan nan nan nan nan nan nan nan nan nan nan nan nan nan nan nan nan nan nan nan nan nan nan 301 297 296 295 309 316 315 316 320 316 315 316 310 305 298 285 277 273 274 274 273 274 275 278 280 283 281 280 279 276 280 265 252 261 274 298 308 315 315 324 324 324 332 343 348 350 346 349 nan nan nan nan nan nan nan
nan nan nan nan nan nan nan nan nan nan nan nan nan nan nan nan nan nan nan nan nan nan nan nan nan nan nan nan nan nan nan nan nan nan nan nan nan nan nan nan nan nan 294 290 289 302 314 309 314 321 323 327 329 326 314 306 294 291 286 284 281 277 277 272 273 276 278 278 276 277 276 272 258 252 248 260 276 292 301 304 310 318 325 326 337 347 346 345 347 351 nan nan nan nan nan nan nan
nan nan nan nan nan nan nan nan nan nan nan nan nan nan nan nan nan nan nan nan nan nan nan nan nan nan nan nan nan nan nan nan nan nan nan nan nan nan nan nan nan nan 277 282 288 296 300 308 320 321 324 329 334 324 317 309 300 294 294 286 283 277 276 273 275 276 278 276 275 274 269 261 254 242 247 261 273 271 279 295 304 314 322 330 339 344 339 339 348 351 nan nan nan nan 354 353 nan